Torna al catalogo

BREEZE-M DEB

LostHEO
NORAD 38634·DEBRIS·🇷🇺 Russia

Lanciato Mar 14, 2008 da Baikonur Cosmodrome

Loading…

Prossimi Passaggi (prossime 24 ore)

TLE

ObsoletoSource: Space-Track

Epoca: Jan 20, 2023, 01:29 UTC

1 38634U 08011CH  23020.06240994 -.00002943  00000-0 -14643+0 0  9992
2 38634  48.6702 157.0386 6426446 147.7014 140.7263  2.96752215127629

Traccia BREEZE-M DEB in tempo reale con AllMySat

Download on the App Store